This is the latest recevied weather packets stored in our database for station/object K3SV. If no packets are shown the sender has not sent any weather packets the latest 10 day(s).
| Time | Temp. | Humidity | Pressure | Rain* | Wind** | Luminosity | Snow |
|---|---|---|---|---|---|---|---|
| 1777849724 | 25° C | 54% | 1015.2 hPa | 0 mm | - | 36 W/m² | - |
| 1777849420 | 25° C | 54% | 1015.2 hPa | 0 mm | - | 38 W/m² | - |
| 1777849118 | 25° C | 54% | 1015.3 hPa | 0 mm | - | 42 W/m² | - |
| 1777848813 | 25.56° C | 53% | 1015.1 hPa | 0 mm | - | 43 W/m² | - |
| 1777848505 | 25.56° C | 53% | 1015.3 hPa | 0 mm | - | 47 W/m² | - |
| 1777848202 | 25.56° C | 52% | 1015.2 hPa | 0 mm | - | 70 W/m² | - |
| 1777847900 | 26.11° C | 52% | 1015.3 hPa | 0 mm | - | 137 W/m² | - |
| 1777847597 | 26.11° C | 53% | 1015 hPa | 0 mm | - | 148 W/m² | - |
| 1777847293 | 26.11° C | 52% | 1015.3 hPa | 0 mm | - | 168 W/m² | - |
| 1777846992 | 26.11° C | 52% | 1015.5 hPa | 0 mm | - | 184 W/m² | - |
| 1777846689 | 25.56° C | 54% | 1015.3 hPa | 0 mm | - | 201 W/m² | - |
| 1777846388 | 26.11° C | 53% | 1015.3 hPa | 0 mm | - | 207 W/m² | - |
| 1777846083 | 25.56° C | 53% | 1015.5 hPa | 0 mm | - | 148 W/m² | - |
| 1777845780 | 26.11° C | 51% | 1015.1 hPa | 0 mm | - | 82 W/m² | - |
| 1777845477 | 26.11° C | 50% | 1015.2 hPa | 0 mm | - | 253 W/m² | - |
| 1777845174 | 26.11° C | 51% | 1015.3 hPa | 0 mm | - | 264 W/m² | - |
| 1777844872 | 26.11° C | 52% | 1015.4 hPa | 0 mm | - | 289 W/m² | - |
| 1777844569 | 25.56° C | 54% | 1015.3 hPa | 0 mm | - | 302 W/m² | - |
| 1777844267 | 25.56° C | 54% | 1015.4 hPa | 0 mm | - | 105 W/m² | - |
| 1777843964 | 25.56° C | 52% | 1015.3 hPa | 0 mm | - | 72 W/m² | - |
| 1777843660 | 25.56° C | 52% | 1015.3 hPa | 0 mm | - | 95 W/m² | - |
| 1777843358 | 26.11° C | 51% | 1015.4 hPa | 0 mm | - | 103 W/m² | - |
| 1777843056 | 26.67° C | 50% | 1015.3 hPa | 0 mm | - | 118 W/m² | - |
| 1777842752 | 27.22° C | 50% | 1015.4 hPa | 0 mm | - | 424 W/m² | - |
| 1777842447 | 26.67° C | 52% | 1015.4 hPa | 0 mm | - | 460 W/m² | - |
* Rain latest hour (hover to see other rain measurements)
** Current wind speed in m/s (hover to see current wind gust speed)